This is the latest recevied weather packets stored in our database for station/object KY0TEQ-13. If no packets are shown the sender has not sent any weather packets the latest 10 day(s).
| Time | Temp. | Humidity | Pressure | Rain* | Wind** | Luminosity | Snow |
|---|---|---|---|---|---|---|---|
| 1788312828 | 21.67° C | 33% | 1307.8 hPa | 0 mm | - | 7 W/m² | - |
| 1788312523 | 22.22° C | 32% | 1307.7 hPa | 0 mm | - | 9 W/m² | - |
| 1788312219 | 22.78° C | 31% | 1307.9 hPa | 0 mm | - | 12 W/m² | - |
| 1788311915 | 22.78° C | 30% | 1307.8 hPa | 0 mm | - | 16 W/m² | - |
| 1788311609 | 23.33° C | 29% | 1307.8 hPa | 0 mm | - | 19 W/m² | - |
| 1788311308 | 23.33° C | 29% | 1307.9 hPa | 0 mm | - | 21 W/m² | - |
| 1788311004 | 23.33° C | 28% | 1307.7 hPa | 0 mm | - | 24 W/m² | - |
| 1788310702 | 23.89° C | 28% | 1307.8 hPa | 0 mm | - | 26 W/m² | - |
| 1788310397 | 23.89° C | 28% | 1307.9 hPa | 0 mm | - | 30 W/m² | - |
| 1788310093 | 24.44° C | 27% | 1307.9 hPa | 0 mm | - | 34 W/m² | - |
| 1788309787 | 24.44° C | 28% | 1307.9 hPa | 0 mm | - | 38 W/m² | - |
| 1788309483 | 24.44° C | 26% | 1307.8 hPa | 0 mm | - | 37 W/m² | - |
| 1788309178 | 24.44° C | 26% | 1307.8 hPa | 0 mm | - | 41 W/m² | - |
| 1788308874 | 24.44° C | 26% | 1307.9 hPa | 0 mm | - | 44 W/m² | - |
| 1788308573 | 24.44° C | 26% | 1307.7 hPa | 0 mm | - | 51 W/m² | - |
| 1788308268 | 25° C | 25% | 1307.9 hPa | 0 mm | - | 60 W/m² | - |
| 1788307963 | 25° C | 25% | 1307.9 hPa | 0 mm | - | 79 W/m² | - |
| 1788307658 | 25° C | 23% | 1307.9 hPa | 0 mm | - | 95 W/m² | - |
| 1788307353 | 25° C | 23% | 1307.8 hPa | 0 mm | - | 117 W/m² | - |
| 1788307052 | 25° C | 23% | 1307.8 hPa | 0 mm | - | 126 W/m² | - |
| 1788306748 | 25° C | 26% | 1308 hPa | 0 mm | - | 142 W/m² | - |
| 1788306442 | 25° C | 24% | 1307.8 hPa | 0 mm | - | 168 W/m² | - |
| 1788306141 | 25° C | 25% | 1307.9 hPa | 0 mm | - | 188 W/m² | - |
| 1788305836 | 25° C | 25% | 1307.9 hPa | 0 mm | - | 212 W/m² | - |
| 1788305533 | 25.56° C | 27% | 1307.7 hPa | 0 mm | - | 236 W/m² | - |
* Rain latest hour (hover to see other rain measurements)
** Current wind speed in m/s (hover to see current wind gust speed)